Location: Dehesa de la Cepeda
(40.6574°N, 4.3013°W)
Time: 03:53:48
(UTC+00:00)

Cosmos-2242 - Pass Details

Date: 05 July 2020
Orbit: 592 x 616 km, 82.5° (Epoch: 10 August)

Event Time Altitude Azimuth Distance (km) Brightness Sun altitude
Rises 20:49:54 0° 2° (N) 2,870 7.1 -9.8°
Reaches altitude 10° 20:52:19 10° 13° (NNE) 1,966 6.0 -10.1°
Maximum altitude 20:56:13 31° 76° (ENE) 1,069 4.0 -10.7°
Enters shadow 20:59:06 16° 132° (SE) 1,625 4.5 -11.1°
